TimeCDT,TemperatureF,Dew PointF,Humidity,Sea Level PressureIn,VisibilityMPH,Wind Direction,Wind SpeedMPH,Gust SpeedMPH,PrecipitationIn,Events,Conditions,WindDirDegrees,DateUTC
12:53 AM,44.1,41.0,89,29.88,10.0,East,8.1,-,N/A,,Clear,100,2012-10-21 05:53:00
1:53 AM,44.6,41.0,87,29.85,10.0,ESE,8.1,-,N/A,,Clear,120,2012-10-21 06:53:00
2:53 AM,43.0,41.0,93,29.85,10.0,ESE,6.9,-,0.00,,Clear,110,2012-10-21 07:53:00
3:53 AM,43.0,41.0,93,29.85,10.0,ESE,6.9,-,N/A,,Clear,110,2012-10-21 08:53:00
4:53 AM,42.8,39.2,87,29.84,9.0,East,9.2,-,N/A,,Clear,100,2012-10-21 09:53:00
5:53 AM,43.0,41.0,93,29.85,9.0,SE,8.1,-,N/A,,Clear,130,2012-10-21 10:53:00
6:53 AM,42.1,39.9,92,29.85,8.0,SE,6.9,-,0.01,,Clear,130,2012-10-21 11:53:00
7:53 AM,43.0,41.0,93,29.86,7.0,ESE,5.8,-,N/A,,Clear,120,2012-10-21 12:53:00
8:53 AM,46.9,45.0,93,29.88,9.0,ESE,6.9,-,N/A,,Clear,120,2012-10-21 13:53:00
9:53 AM,54.0,46.9,77,29.88,10.0,SE,9.2,-,N/A,,Clear,140,2012-10-21 14:53:00
10:53 AM,57.9,48.0,70,29.88,10.0,South,8.1,-,N/A,,Clear,180,2012-10-21 15:53:00
11:53 AM,63.0,50.0,63,29.88,10.0,SSE,8.1,-,N/A,,Clear,160,2012-10-21 16:53:00
12:53 PM,66.9,53.1,61,29.85,10.0,ESE,5.8,-,N/A,,Clear,120,2012-10-21 17:53:00
1:53 PM,71.1,55.0,57,29.84,10.0,SSE,8.1,-,N/A,,Clear,150,2012-10-21 18:53:00
2:53 PM,73.9,57.0,55,29.82,10.0,SE,9.2,-,N/A,,Clear,130,2012-10-21 19:53:00
3:53 PM,75.9,59.0,56,29.81,10.0,SSE,13.8,-,N/A,,Clear,150,2012-10-21 20:53:00
4:53 PM,75.0,59.0,57,29.81,10.0,SSE,11.5,-,N/A,,Clear,150,2012-10-21 21:53:00
5:53 PM,73.0,60.1,64,29.81,10.0,SE,6.9,-,N/A,,Clear,140,2012-10-21 22:53:00
6:53 PM,66.9,57.9,73,29.82,10.0,ESE,8.1,-,N/A,,Partly Cloudy,120,2012-10-21 23:53:00
7:53 PM,66.9,59.0,76,29.83,10.0,SE,9.2,-,N/A,,Clear,130,2012-10-22 00:53:00
8:53 PM,64.9,59.0,81,29.84,10.0,ESE,6.9,-,N/A,,Overcast,120,2012-10-22 01:53:00
9:53 PM,69.1,59.0,70,29.85,10.0,SSE,9.2,-,N/A,,Overcast,150,2012-10-22 02:53:00
10:53 PM,68.0,59.0,73,29.86,10.0,SSE,8.1,-,N/A,,Overcast,150,2012-10-22 03:53:00
11:53 PM,63.0,57.9,84,29.85,10.0,ESE,6.9,-,N/A,,Mostly Cloudy,120,2012-10-22 04:53:00